King Salmon, AK

7:47 PM AKST on February 12, 2016 (GMT -0900)
Port Heiden

Weather History for PAPH - January, 2013

Change the Weather History Date:

Wednesday, January 16, 2013

  Actual Average Record
Temperature  
Mean Temperature 25 °F -  
Max Temperature 33 °F 29 °F 48 °F (2002)
Min Temperature 17 °F 20 °F 1 °F (2012)
Degree Days  
Heating Degree Days 40    
Moisture  
Dew Point 15 °F    
Average Humidity 71    
Maximum Humidity 93    
Minimum Humidity 51    
Precipitation  
Precipitation 0.02 in - - ()
Sea Level Pressure  
Sea Level Pressure 30.10 in    
Wind  
Wind Speed 12 mph (NNW)    
Max Wind Speed 17 mph    
Max Gust Speed 22 mph    
Visibility 9 miles    
Events      
Averages and records for this station are not official NWS values.
T = Trace of Precipitation, MM = Missing Value Source: NWS Daily Summary

Daily Weather History Graph

Daily Weather History Graph

Search for Another Location

Airport or City:

Trip Planner

Search our weather history database for the weather conditions in past years. The results will help you decide how hot, cold, wet, or windy it might be!

Date:

Astronomy

Jan. 16, 2013 Rise Set
Actual Time 9:59 AM AKST 5:30 PM AKST
Civil Twilight 9:13 AM AKST 6:16 PM AKST
Nautical Twilight 8:25 AM AKST 7:04 PM AKST
Astronomical Twilight 7:39 AM AKST 7:50 PM AKST
Moon 11:23 AM AKST (1/16) No Moon Set
Length of Visible Light 9h 02m
Length of Day
7h 30m
Waxing Crescent, 29% of the Moon is Illuminated
Jan 16
Waxing Crescent
Jan 18
First Quarter
Jan 26
Full
Feb 3
Last Quarter
Feb 9
New

Hourly Weather History & Observations

Time (AKST) Temp. Windchill Dew Point Humidity Pressure Visibility Wind Dir Wind Speed Gust Speed Precip Events Conditions
12:16 AM 30.2 °F 20.2 °F 26.6 °F 86% 30.17 in 1.8 mi SW 12.7 mph - N/A   Overcast
12:36 AM 30.2 °F 20.2 °F 26.6 °F 86% 30.17 in 0.8 mi SW 12.7 mph - N/A   Overcast
12:56 AM 28.4 °F 17.5 °F 26.6 °F 93% 30.17 in 1.0 mi WSW 13.8 mph - N/A   Overcast
1:16 AM 28.4 °F 19.7 °F 26.6 °F 93% 30.17 in 0.8 mi WSW 9.2 mph - N/A   Overcast
1:36 AM 28.4 °F 19.1 °F 26.6 °F 93% 30.17 in 0.8 mi SW 10.4 mph - 0.02 in   Overcast
1:56 AM 30.2 °F 23.4 °F 26.6 °F 86% 30.16 in 1.2 mi West 6.9 mph - 0.02 in   Overcast
2:16 AM 28.4 °F 17.0 °F 24.8 °F 86% 30.17 in 1.0 mi NNW 15.0 mph 19.6 mph N/A   Overcast
3:16 AM 28.4 °F 17.5 °F 21.2 °F 74% 30.18 in 3.0 mi NNW 13.8 mph - N/A   Overcast
3:36 AM 28.4 °F 17.0 °F 21.2 °F 74% 30.19 in 10.0 mi NNW 15.0 mph - N/A   Overcast
3:56 AM 26.6 °F 15.2 °F 21.2 °F 80% 30.19 in 10.0 mi NNW 13.8 mph - N/A   Overcast
4:16 AM 26.6 °F 16.2 °F 21.2 °F 80% 30.19 in 10.0 mi North 11.5 mph - N/A   Overcast
4:36 AM 26.6 °F 15.7 °F 19.4 °F 74% 30.18 in 10.0 mi North 12.7 mph - N/A   Overcast
4:56 AM 26.6 °F 16.8 °F 19.4 °F 74% 30.18 in 10.0 mi NNW 10.4 mph - 0.01 in   Overcast
5:16 AM 26.6 °F 16.2 °F 19.4 °F 74% 30.17 in 10.0 mi NNW 11.5 mph 16.1 mph N/A   Overcast
5:36 AM 26.6 °F 19.1 °F 21.2 °F 80% 30.17 in 10.0 mi NNW 6.9 mph - N/A   Overcast
5:56 AM 26.6 °F 19.1 °F 21.2 °F 80% 30.17 in 10.0 mi NNW 6.9 mph - 0.01 in   Overcast
6:16 AM 26.6 °F 17.5 °F 21.2 °F 80% 30.16 in 10.0 mi North 9.2 mph - 0.01 in   Overcast
6:36 AM 26.6 °F 19.1 °F 19.4 °F 74% 30.16 in 10.0 mi NNW 6.9 mph - 0.01 in   Overcast
6:56 AM 26.6 °F 19.1 °F 17.6 °F 69% 30.16 in 10.0 mi North 6.9 mph - 0.10 in   Overcast
7:16 AM 26.6 °F 19.1 °F 17.6 °F 69% 30.16 in 10.0 mi NNW 6.9 mph - N/A   Overcast
7:36 AM 26.6 °F 16.2 °F 19.4 °F 74% 30.16 in 10.0 mi NW 11.5 mph - 0.02 in   Overcast
7:56 AM 26.6 °F 17.5 °F 15.8 °F 64% 30.15 in 10.0 mi NNW 9.2 mph - 0.02 in   Overcast
8:16 AM 26.6 °F 16.8 °F 15.8 °F 64% 30.14 in 10.0 mi NNW 10.4 mph - N/A   Overcast
8:36 AM 26.6 °F 20.0 °F 14.0 °F 59% 30.14 in 10.0 mi NW 5.8 mph - N/A   Overcast
8:56 AM 24.8 °F 14.6 °F 15.8 °F 69% 30.15 in 10.0 mi NW 10.4 mph - N/A   Overcast
9:16 AM 24.8 °F 15.3 °F 14.0 °F 64% 30.15 in 10.0 mi WNW 9.2 mph - N/A   Overcast
9:36 AM 24.8 °F 14.6 °F 12.2 °F 59% 30.15 in 10.0 mi NW 10.4 mph - N/A   Overcast
9:56 AM 23.0 °F 10.6 °F 14.0 °F 68% 30.14 in 10.0 mi NW 13.8 mph - N/A   Overcast
10:16 AM 21.2 °F 8.3 °F 12.2 °F 68% 30.13 in 10.0 mi NNW 13.8 mph - N/A   Overcast
10:36 AM 21.2 °F 8.3 °F 12.2 °F 68% 30.13 in 10.0 mi NNW 13.8 mph - 0.01 in   Mostly Cloudy
10:56 AM 21.2 °F 8.9 °F 10.4 °F 63% 30.11 in 10.0 mi NNW 12.7 mph - 0.01 in   Mostly Cloudy
11:16 AM 21.2 °F 8.9 °F 14.0 °F 74% 30.11 in 10.0 mi NNW 12.7 mph 19.6 mph N/A   Overcast
11:36 AM 21.2 °F 8.3 °F 10.4 °F 63% 30.11 in 10.0 mi NW 13.8 mph - N/A   Overcast
11:56 AM 21.2 °F 8.9 °F 10.4 °F 63% 30.11 in 10.0 mi NW 12.7 mph - N/A   Overcast
12:16 PM 21.2 °F 7.3 °F 10.4 °F 63% 30.10 in 10.0 mi NNW 16.1 mph - N/A   Overcast
12:36 PM 21.2 °F 7.8 °F 10.4 °F 63% 30.10 in 10.0 mi NNW 15.0 mph 21.9 mph N/A   Overcast
12:56 PM 21.2 °F 7.8 °F 10.4 °F 63% 30.10 in 10.0 mi NNW 15.0 mph - N/A   Overcast
1:16 PM 21.2 °F 8.3 °F 12.2 °F 68% 30.09 in 10.0 mi NW 13.8 mph 18.4 mph N/A   Overcast
1:36 PM 21.2 °F 7.8 °F 12.2 °F 68% 30.08 in 10.0 mi NW 15.0 mph - N/A   Overcast
1:56 PM 21.2 °F 9.5 °F 10.4 °F 63% 30.07 in 10.0 mi NNW 11.5 mph 18.4 mph N/A   Overcast
2:16 PM 21.2 °F 7.8 °F 10.4 °F 63% 30.06 in 10.0 mi NW 15.0 mph 19.6 mph N/A   Overcast
2:36 PM 21.2 °F 8.9 °F 14.0 °F 74% 30.05 in 10.0 mi NW 12.7 mph 21.9 mph N/A   Overcast
2:56 PM 23.0 °F 9.2 °F 14.0 °F 68% 30.04 in 10.0 mi NNW 17.3 mph 20.7 mph N/A   Overcast
3:16 PM 23.0 °F 10.1 °F 12.2 °F 63% 30.03 in 10.0 mi North 15.0 mph 20.7 mph N/A   Overcast
3:36 PM 21.2 °F 6.8 °F 12.2 °F 68% 30.03 in 10.0 mi North 17.3 mph - N/A   Overcast
3:56 PM 21.2 °F 8.3 °F 8.6 °F 58% 30.03 in 9.0 mi North 13.8 mph - N/A   Overcast
4:16 PM 21.2 °F 7.8 °F 12.2 °F 68% 30.03 in 10.0 mi North 15.0 mph 19.6 mph N/A   Overcast
4:36 PM 21.2 °F 7.8 °F 15.8 °F 80% 30.03 in 7.0 mi NNE 15.0 mph 21.9 mph N/A   Overcast
4:56 PM 21.2 °F 8.9 °F 15.8 °F 80% 30.03 in 10.0 mi NE 12.7 mph - N/A   Overcast
5:16 PM 21.2 °F 10.1 °F 15.8 °F 80% 30.03 in 10.0 mi NNE 10.4 mph - N/A   Overcast
5:36 PM 21.2 °F 10.9 °F 12.2 °F 68% 30.03 in 10.0 mi NE 9.2 mph - N/A   Overcast
5:56 PM 21.2 °F 11.7 °F 14.0 °F 74% 30.04 in 10.0 mi NE 8.1 mph - N/A   Overcast
6:16 PM 21.2 °F 13.6 °F 15.8 °F 80% 30.03 in 10.0 mi NNE 5.8 mph - N/A   Overcast
6:36 PM 21.2 °F 11.7 °F 14.0 °F 74% 30.03 in 10.0 mi North 8.1 mph - N/A   Overcast
6:56 PM 21.2 °F 10.1 °F 12.2 °F 68% 30.03 in 10.0 mi North 10.4 mph - N/A   Overcast
7:16 PM 21.2 °F 8.9 °F 10.4 °F 63% 30.02 in 10.0 mi North 12.7 mph - N/A   Overcast
7:36 PM 21.2 °F 9.5 °F 8.6 °F 58% 30.02 in 10.0 mi North 11.5 mph - N/A   Overcast
7:56 PM 19.4 °F 7.9 °F 14.0 °F 80% 30.02 in 10.0 mi North 10.4 mph - N/A   Overcast
8:16 PM 19.4 °F 6.6 °F 10.4 °F 68% 30.01 in 10.0 mi North 12.7 mph - N/A   Overcast
8:36 PM 19.4 °F 7.9 °F 10.4 °F 68% 30.01 in 10.0 mi North 10.4 mph - N/A   Overcast
8:56 PM 19.4 °F 8.6 °F 8.6 °F 63% 30.01 in 10.0 mi North 9.2 mph - N/A   Overcast
9:16 PM 19.4 °F 7.2 °F 10.4 °F 68% 30.02 in 10.0 mi NNE 11.5 mph - N/A   Overcast
9:36 PM 19.4 °F 7.2 °F 8.6 °F 63% 30.02 in 10.0 mi NNE 11.5 mph - 0.02 in   Overcast
9:56 PM 19.4 °F 7.9 °F 10.4 °F 68% 30.02 in 9.0 mi North 10.4 mph - 0.02 in   Overcast
10:16 PM 19.4 °F 6.6 °F 10.4 °F 68% 30.03 in 10.0 mi NNE 12.7 mph - N/A   Overcast
10:36 PM 19.4 °F 7.9 °F 10.4 °F 68% 30.03 in 10.0 mi NNE 10.4 mph - N/A   Overcast
10:56 PM 17.6 °F 4.3 °F 10.4 °F 73% 30.03 in 10.0 mi NE 12.7 mph - N/A   Overcast
11:16 PM 17.6 °F 5.0 °F 12.2 °F 79% 30.03 in 10.0 mi NE 11.5 mph - N/A   Overcast
11:36 PM 17.6 °F 5.0 °F 6.8 °F 63% 30.02 in 10.0 mi NE 11.5 mph - N/A   Overcast
11:56 PM 17.6 °F 3.7 °F 5.0 °F 58% 30.03 in 10.0 mi NE 13.8 mph - N/A   Overcast